Santa Fe, NM

3:39 AM MST on February 27, 2017 (GMT -0700)
Santa Fe Municipal

Weather History for KSAF - May, 2013

Change the Weather History Date:

Tuesday, May 28, 2013

  Actual Average Record
Temperature  
Mean Temperature 61 °F -  
Max Temperature 81 °F 79 °F 91 °F (2000)
Min Temperature 41 °F 35 °F 33 °F (1980)
Degree Days  
Heating Degree Days 4    
Growing Degree Days 11 (Base 50)    
Moisture  
Dew Point 5 °F    
Average Humidity 11    
Maximum Humidity 31    
Minimum Humidity 4    
Precipitation  
Precipitation 0.00 in - - ()
Sea Level Pressure  
Sea Level Pressure 29.59 in    
Wind  
Wind Speed 6 mph (West)    
Max Wind Speed 15 mph    
Max Gust Speed 28 mph    
Visibility 10 miles    
Events      
Averages and records for this station are not official NWS values.
T = Trace of Precipitation, MM = Missing Value Source: NWS Daily Summary

Daily Weather History Graph

Daily Weather History Graph

Search for Another Location

Airport or City:

Trip Planner

Search our weather history database for the weather conditions in past years. The results will help you decide how hot, cold, wet, or windy it might be!

Date:

Astronomy

May. 28, 2013 Rise Set
Actual Time 5:51 AM MDT 8:12 PM MDT
Civil Twilight 5:22 AM MDT 8:41 PM MDT
Nautical Twilight 4:46 AM MDT 9:17 PM MDT
Astronomical Twilight 4:06 AM MDT 9:57 PM MDT
Moon 11:42 PM MDT (5/28) 9:39 AM MDT (5/28)
Length of Visible Light 15h 19m
Length of Day
14h 20m
Waning Gibbous, 82% of the Moon is Illuminated
May 28
Waning Gibbous
May 31
Last Quarter
Jun 8
New
Jun 16
First Quarter
Jun 23
Full

Hourly Weather History & Observations

Time (MDT) Temp. Windchill Dew Point Humidity Pressure Visibility Wind Dir Wind Speed Gust Speed Precip Events Conditions
12:53 AM 66.0 °F - 12.9 °F 13% 29.66 in 10.0 mi Calm Calm - N/A   Clear
1:53 AM 57.0 °F - 12.9 °F 18% 29.67 in 10.0 mi North 3.5 mph - N/A   Clear
2:53 AM 55.9 °F - 12.9 °F 18% 29.66 in 10.0 mi WSW 3.5 mph - N/A   Clear
3:53 AM 51.1 °F - 12.0 °F 21% 29.67 in 10.0 mi NNW 4.6 mph - N/A   Clear
4:53 AM 48.0 °F - 12.0 °F 24% 29.68 in 10.0 mi NW 4.6 mph - N/A   Clear
5:53 AM 41.0 °F 36.4 °F 12.0 °F 31% 29.71 in 10.0 mi North 6.9 mph - N/A   Clear
6:53 AM 50.0 °F - 12.9 °F 23% 29.69 in 10.0 mi NNE 6.9 mph - N/A   Clear
7:53 AM 60.1 °F - 12.9 °F 16% 29.67 in 10.0 mi NNW 3.5 mph - N/A   Clear
8:53 AM 66.0 °F - 12.9 °F 13% 29.65 in 10.0 mi SW 9.2 mph - N/A   Clear
9:53 AM 70.0 °F - 12.0 °F 11% 29.63 in 10.0 mi West 13.8 mph - N/A   Clear
10:53 AM 71.1 °F - 10.9 °F 10% 29.61 in 10.0 mi West 6.9 mph - N/A   Clear
11:53 AM 75.0 °F - 8.1 °F 8% 29.60 in 10.0 mi South 8.1 mph 16.1 mph N/A   Clear
12:53 PM 75.9 °F - -0.9 °F 5% 29.57 in 10.0 mi SW 10.4 mph 18.4 mph N/A   Clear
1:53 PM 81.0 °F - -7.1 °F 4% 29.55 in 10.0 mi WSW 15.0 mph 27.6 mph N/A   Clear
2:53 PM 79.0 °F - -9.0 °F 4% 29.54 in 10.0 mi WSW 15.0 mph 26.5 mph N/A   Clear
3:53 PM 78.1 °F - -2.0 °F 4% 29.54 in 10.0 mi SSW 11.5 mph 16.1 mph N/A   Clear
4:53 PM 78.1 °F - 1.0 °F 5% 29.53 in 10.0 mi SW 8.1 mph 17.3 mph N/A   Clear
5:53 PM 77.0 °F - -2.0 °F 5% 29.53 in 10.0 mi South 13.8 mph 19.6 mph N/A   Clear
6:53 PM 77.0 °F - -2.9 °F 4% 29.47 in 10.0 mi SW 8.1 mph - N/A   Clear
7:16 PM 75.2 °F - -4.0 °F 4% 29.75 in 10.0 mi WNW 13.8 mph 20.7 mph N/A   Clear
7:53 PM 73.0 °F - -2.9 °F 5% 29.46 in 10.0 mi WNW 8.1 mph - N/A   Clear
8:53 PM 64.9 °F - -2.0 °F 7% 29.47 in 10.0 mi NNW 5.8 mph - N/A   Clear
9:53 PM 61.0 °F - -2.0 °F 8% 29.49 in 10.0 mi NNW 4.6 mph - N/A   Clear
10:53 PM 62.1 °F - 3.0 °F 9% 29.50 in 10.0 mi SSW 4.6 mph - N/A   Clear
11:53 PM 63.0 °F - 6.1 °F 11% 29.49 in 10.0 mi West 11.5 mph - N/A   Clear